Aviano USAFB, Italy

5:45 AM CEST on August 21, 2017 (GMT +0200)
Aviano USAFB

Weather History for LIYW - July, 2013

Change the Weather History Date:

Friday, July 19, 2013

  Actual Average Record
Temperature  
Mean Temperature 78 °F -  
Max Temperature 90 °F - - ()
Min Temperature 67 °F - - ()
Cooling Degree Days 14    
Growing Degree Days 28 (Base 50)    
Moisture  
Dew Point 58 °F    
Average Humidity 50    
Maximum Humidity 78    
Minimum Humidity 28    
Precipitation  
Precipitation 0.00 in - - ()
Sea Level Pressure  
Sea Level Pressure 30.04 in    
Wind  
Wind Speed 4 mph ()    
Max Wind Speed 6 mph    
Max Gust Speed -    
Visibility 6.2 miles    
Events      
T = Trace of Precipitation, MM = Missing Value Source: Averaged Metar Reports

Daily Weather History Graph

Daily Weather History Graph

Search for Another Location

Airport or City:

Trip Planner

Search our weather history database for the weather conditions in past years. The results will help you decide how hot, cold, wet, or windy it might be!

Date:

Astronomy

Jul. 19, 2013 Rise Set
Actual Time 5:37 AM CEST 8:53 PM CEST
Civil Twilight 5:00 AM CEST 9:30 PM CEST
Nautical Twilight 4:13 AM CEST 10:17 PM CEST
Astronomical Twilight 3:13 AM CEST 11:16 PM CEST
Moon 5:37 PM CEST (7/19) 2:04 AM CEST (7/19)
Length of Visible Light 16h 29m
Length of Day
15h 16m
Waxing Gibbous, 84% of the Moon is Illuminated
Jul 19
Waxing Gibbous
Jul 22
Full
Jul 29
Last Quarter
Aug 6
New
Aug 14
First Quarter

Hourly Weather History & Observations

Time (CEST) Temp. Heat Index Dew Point Humidity Pressure Visibility Wind Dir Wind Speed Gust Speed Precip Events Conditions
12:58 AM 68.4 °F - 59.4 °F 73% 30.07 in 6.2 mi NNE 3.5 mph - N/A   Clear
1:58 AM 68.2 °F - 59.4 °F 73% 30.06 in 6.2 mi NE 4.6 mph - N/A   Clear
2:58 AM 67.3 °F - 60.1 °F 78% 30.06 in 6.2 mi NNE 2.3 mph - N/A   Partly Cloudy
3:58 AM 67.8 °F - 58.5 °F 72% 30.05 in 6.2 mi NNE 4.6 mph - N/A   Clear
4:58 AM 67.5 °F - 59.2 °F 75% 30.05 in 6.2 mi NE 5.8 mph - N/A   Clear
5:58 AM 67.5 °F - 58.3 °F 72% 30.05 in 6.2 mi NNE 4.6 mph - N/A   Clear
6:58 AM 67.8 °F - 59.0 °F 73% 30.06 in 6.2 mi NNE 4.6 mph - N/A   Clear
7:58 AM 73.9 °F - 61.0 °F 64% 30.06 in 6.2 mi NNE 3.5 mph - N/A   Scattered Clouds
8:47 AM 80.6 °F 81.1 °F 59.0 °F 48% 30.07 in 6.2 mi NNE 2.3 mph - N/A   Light Drizzle
8:58 AM 79.5 °F - 59.5 °F 50% 30.06 in 6.2 mi NE 4.6 mph - 0.00 in   Light Drizzle
8:59 AM 78.8 °F - 59.0 °F 51% 30.07 in 6.2 mi NE 4.6 mph - N/A   Clear
9:06 AM 78.8 °F - 57.2 °F 47% 30.07 in 6.2 mi ENE 4.6 mph - N/A   Light Drizzle
9:10 AM 78.8 °F - 57.2 °F 47% 30.08 in 6.2 mi East 3.5 mph - N/A   Clear
9:15 AM 80.6 °F 81.1 °F 59.0 °F 48% 30.08 in 6.2 mi ENE 4.6 mph - N/A   Light Drizzle
9:16 AM 80.6 °F 81.1 °F 59.0 °F 48% 30.07 in 6.2 mi East 4.6 mph - N/A   Clear
9:58 AM 82.6 °F 82.2 °F 57.2 °F 42% 30.06 in 6.2 mi East 5.8 mph - 0.00 in   Clear
10:58 AM 84.2 °F 83.3 °F 57.0 °F 39% 30.06 in 6.2 mi Variable 2.3 mph - N/A   Clear
11:58 AM 85.6 °F 84.5 °F 56.7 °F 37% 30.05 in 6.2 mi Variable 2.3 mph - N/A   Clear
12:58 PM 86.7 °F 85.9 °F 58.5 °F 38% 30.05 in 6.2 mi Variable 3.5 mph - N/A   Clear
1:58 PM 87.6 °F 86.5 °F 57.6 °F 36% 30.03 in 6.2 mi ESE 5.8 mph - N/A   Clear
2:58 PM 88.9 °F 87.1 °F 55.8 °F 32% 30.01 in 6.2 mi South 4.6 mph - N/A   Clear
3:58 PM 90.1 °F 88.3 °F 55.8 °F 31% 29.99 in 6.2 mi ESE 5.8 mph - N/A   Clear
4:58 PM 89.8 °F 87.5 °F 54.0 °F 29% 29.97 in 6.2 mi SSE 5.8 mph - N/A   Clear
5:58 PM 89.6 °F - 52.7 °F 28% 29.96 in 6.2 mi SSW 5.8 mph - N/A   Clear
6:58 PM 88.2 °F 86.5 °F 55.8 °F 33% 29.97 in 6.2 mi SSW 5.8 mph - N/A   Clear
7:45 PM 82.4 °F 82.5 °F 59.0 °F 45% 29.98 in 6.2 mi NW 4.6 mph - N/A   Light Drizzle
7:51 PM 82.4 °F 82.0 °F 57.2 °F 42% 29.98 in 6.2 mi NW 4.6 mph - N/A   Clear
7:58 PM 81.9 °F 81.8 °F 57.9 °F 44% 29.97 in 6.2 mi NNW 3.5 mph - 0.00 in   Clear